Date_and_time,latitude,longitude,wind_speed,RelWindDirFrom,WindDirFrom,air_pressure,air_temperature,relative_humidity,Temp,platform_speed_wrt_ground,air_pressure_at_mean_sea_level,platform_orientation
2018-07-13 00:00,50.6304416666667,-96.9807833333333,6.1,12.4,279,983.12,29.4,34,24.40,0.0,1008.13,229.4
2018-07-13 00:10,50.630445,-96.9807833333333,5.9,10.2,281,983.27,29.3,34,24.31,0.0,1008.27,229.4
2018-07-13 00:20,50.630445,-96.98078,7.7,13.0,285,983.26,29.7,33,24.19,0.0,1008.25,229.4
2018-07-13 00:30,50.630445,-96.98078,8.9,15.3,290,983.19,29.7,32,24.05,0.0,1008.17,229.4
2018-07-13 00:40,50.6304483333333,-96.9807766666667,9.2,16.1,283,983.22,29.6,32,24.13,0.0,1008.21,229.4
2018-07-13 00:50,50.6304583333333,-96.9807733333333,7.1,13.3,285,983.31,29.5,33,24.26,0.0,1008.32,229.4
2018-07-13 01:00,50.6304616666667,-96.9807683333333,8.1,15.0,285,983.31,29.3,33,24.24,0.0,1008.30,360.0
2018-07-13 01:10,50.6304583333333,-96.9807716666667,7.9,13.0,283,983.32,29.2,34,24.15,0.0,1008.32,360.0
2018-07-13 01:20,50.6304533333333,-96.9807733333333,8.4,14.4,292,983.30,29.0,34,24.19,0.0,1008.32,360.0
2018-07-13 01:30,50.63045,-96.9807716666667,7.7,12.5,291,983.34,28.7,35,24.09,0.0,1008.37,360.0
2018-07-13 01:40,50.630425,-96.9807833333333,5.4,9.0,281,983.48,28.4,36,24.14,0.0,1008.53,360.0
2018-07-13 01:50,50.630435,-96.9807916666667,5.1,8.9,295,983.46,28.0,37,24.11,0.0,1008.53,360.0
2018-07-13 02:00,50.6304416666667,-96.9807733333333,6.4,9.6,302,983.47,27.7,38,23.98,0.0,1008.56,90.0
2018-07-13 02:10,50.6304466666667,-96.9807733333333,6.1,9.1,307,983.60,27.4,38,24.00,0.0,1008.69,90.0
2018-07-13 02:20,50.6304433333333,-96.9807716666667,5.1,7.6,306,983.72,27.0,39,24.04,0.0,1008.82,90.0
2018-07-13 02:30,50.630445,-96.9807666666667,4.6,8.1,303,983.74,26.6,40,23.97,0.0,1008.87,90.0
2018-07-13 02:40,50.630445,-96.9807616666667,4.4,7.2,294,983.93,26.2,41,23.95,0.0,1009.08,90.0
2018-07-13 02:50,50.6304433333333,-96.9807616666667,3.9,6.4,278,984.19,26.0,42,23.92,0.0,1009.36,90.0
2018-07-13 03:00,50.630445,-96.980765,4.0,6.1,273,984.34,25.5,44,23.77,0.0,1009.56,90.0
2018-07-13 03:10,50.6304466666667,-96.980765,3.2,5.0,261,984.56,24.9,45,23.68,0.0,1009.81,90.0
2018-07-13 03:20,50.6304633333333,-96.9807733333333,3.7,5.3,263,984.73,24.7,46,23.73,0.0,1010.01,90.0
2018-07-13 03:30,50.6304916666667,-96.980795,3.0,6.3,322,984.91,24.5,48,23.73,0.0,1010.21,90.0
2018-07-13 03:40,50.6304616666667,-96.9807883333333,2.7,4.3,298,985.00,24.3,47,23.63,0.0,1010.33,90.0
2018-07-13 03:50,50.6304383333333,-96.980765,1.4,2.8,275,985.14,24.0,48,23.55,0.0,1010.49,90.0
2018-07-13 04:00,50.6304466666667,-96.9807716666667,0.9,1.7,230,985.20,23.6,50,23.53,0.0,1010.58,360.0
2018-07-13 04:10,50.6304466666667,-96.9807666666667,1.7,2.3,221,985.28,23.2,53,23.54,0.0,1010.71,360.0
2018-07-13 04:20,50.63045,-96.9807666666667,2.5,3.7,232,985.33,22.8,54,23.50,0.0,1010.79,360.0
2018-07-13 04:30,50.6304533333333,-96.980765,3.0,3.8,228,985.42,22.3,54,23.47,0.0,1010.92,360.0
2018-07-13 04:40,50.6304533333333,-96.9807633333333,3.9,5.2,236,985.51,21.9,55,23.45,0.0,1011.04,360.0
2018-07-13 04:50,50.6304533333333,-96.9807633333333,4.2,5.3,241,985.61,21.6,56,23.44,0.0,1011.18,360.0
2018-07-13 05:00,50.6304533333333,-96.9807616666667,4.4,6.1,245,985.71,21.2,57,23.48,0.0,1011.32,36.6
2018-07-13 05:10,50.630455,-96.9807616666667,4.8,6.2,241,985.78,21.0,58,23.52,0.0,1011.42,36.6
2018-07-13 05:20,50.630455,-96.9807633333333,5.4,6.5,238,985.80,20.7,59,23.50,0.0,1011.45,36.6
2018-07-13 05:30,50.6304566666667,-96.9807633333333,6.0,7.7,241,985.83,20.7,59,23.47,0.0,1011.50,36.6
2018-07-13 05:40,50.630455,-96.9807633333333,5.7,7.2,236,985.87,20.3,60,23.48,0.0,1011.57,36.6
2018-07-13 05:50,50.630455,-96.9807633333333,5.6,9.0,236,985.96,20.0,61,23.43,0.0,1011.68,36.6
2018-07-13 06:00,50.630455,-96.9807633333333,6.2,8.2,243,986.15,20.0,61,23.38,0.0,1011.90,360.0
2018-07-13 06:10,50.630455,-96.9807633333333,6.2,8.5,243,986.22,19.7,63,23.46,0.0,1012.00,360.0
2018-07-13 06:20,50.630455,-96.9807633333333,6.2,8.2,241,986.27,19.6,64,23.53,0.0,1012.09,360.0
2018-07-13 06:30,50.6304533333333,-96.980765,6.4,8.5,244,986.20,19.5,65,23.57,0.0,1012.03,360.0
2018-07-13 06:40,50.6304533333333,-96.9807633333333,6.3,9.2,247,986.13,19.4,65,23.59,0.0,1011.98,360.0
2018-07-13 06:50,50.6304533333333,-96.980765,6.5,8.1,247,986.14,19.3,66,23.58,0.0,1012.01,360.0
2018-07-13 07:00,50.630455,-96.980765,6.6,8.2,244,986.18,19.1,67,23.54,0.0,1012.07,48.3
2018-07-13 07:10,50.630455,-96.980765,5.9,7.7,241,986.25,19.1,68,23.52,0.0,1012.16,48.3
2018-07-13 07:20,50.630455,-96.9807666666667,6.1,8.0,239,986.37,19.0,68,23.54,0.0,1012.29,48.3
2018-07-13 07:30,50.6304533333333,-96.9807666666667,6.2,8.7,243,986.46,19.0,68,23.53,0.0,1012.39,48.3
2018-07-13 07:40,50.6304533333333,-96.9807666666667,6.4,8.3,241,986.55,18.8,70,23.51,0.0,1012.51,48.3
2018-07-13 07:50,50.6304533333333,-96.9807666666667,6.4,8.1,243,986.65,18.7,71,23.51,0.0,1012.61,48.3
2018-07-13 08:00,50.630425,-96.9807733333333,6.2,8.3,246,986.73,18.7,71,23.49,0.0,1012.71,212.5
2018-07-13 08:10,50.63044,-96.9807683333333,6.5,8.5,242,986.77,18.7,72,23.47,0.0,1012.77,212.5
2018-07-13 08:20,50.6304466666667,-96.9807666666667,5.9,7.5,247,986.64,18.6,74,23.46,0.0,1012.64,212.5
2018-07-13 08:30,50.6304466666667,-96.980765,6.5,8.3,243,986.61,18.5,75,23.45,0.0,1012.61,212.5
2018-07-13 08:40,50.6304483333333,-96.980765,5.9,7.7,244,986.71,18.4,76,23.41,0.0,1012.72,212.5
2018-07-13 08:50,50.6304633333333,-96.9807416666667,6.0,7.7,248,986.73,18.3,78,23.41,0.0,1012.76,212.5
2018-07-13 09:00,50.6304516666667,-96.9807833333333,6.0,8.1,244,986.72,18.2,79,23.41,0.0,1012.75,270.0
2018-07-13 09:10,50.6304216666667,-96.980785,6.2,8.8,245,986.75,18.2,80,23.40,0.0,1012.79,270.0
2018-07-13 09:20,50.6304483333333,-96.9807783333333,5.9,8.7,246,986.71,18.1,82,23.36,0.0,1012.75,270.0
2018-07-13 09:30,50.6304483333333,-96.98078,6.3,8.3,245,986.64,18.1,84,23.33,0.0,1012.69,270.0
2018-07-13 09:40,50.6304466666667,-96.980775,6.5,8.5,246,986.57,18.1,86,23.32,0.0,1012.62,270.0
2018-07-13 09:50,50.6304483333333,-96.980775,6.4,9.1,249,986.56,18.2,87,23.33,0.0,1012.60,270.0
2018-07-13 10:00,50.6304616666667,-96.9808016666667,6.4,9.1,245,986.53,18.1,88,23.33,0.0,1012.58,293.6
2018-07-13 10:10,50.6304433333333,-96.9807716666667,7.1,9.1,241,986.57,18.0,89,23.32,0.0,1012.64,293.6
2018-07-13 10:20,50.6304433333333,-96.9807716666667,7.0,9.1,241,986.66,18.0,90,23.31,0.0,1012.72,293.6
2018-07-13 10:30,50.630445,-96.9807733333333,7.0,8.8,241,986.80,18.0,91,23.30,0.0,1012.87,293.6
2018-07-13 10:40,50.630445,-96.9807733333333,7.5,9.8,241,986.79,18.1,90,23.30,0.0,1012.86,293.6
2018-07-13 10:50,50.6304433333333,-96.9807766666667,6.3,8.6,245,986.79,18.1,91,23.29,0.0,1012.87,293.6
2018-07-13 11:00,50.6304616666667,-96.98079,6.4,8.4,241,986.85,18.1,92,23.28,0.0,1012.93,341.5
2018-07-13 11:10,50.6304533333333,-96.9807833333333,5.9,7.3,236,986.86,18.1,92,23.26,0.0,1012.94,341.5
2018-07-13 11:20,50.6304483333333,-96.98078,6.7,9.2,239,986.84,18.3,91,23.24,0.0,1012.92,341.5
2018-07-13 11:30,50.6304466666667,-96.9807783333333,6.6,8.6,241,986.86,18.5,90,23.23,0.0,1012.92,341.5
2018-07-13 11:40,50.6304416666667,-96.980775,6.5,9.3,241,986.95,18.7,90,23.23,0.0,1013.00,341.5
2018-07-13 11:50,50.6304433333333,-96.980775,6.6,9.5,241,986.99,19.0,88,23.23,0.0,1013.04,341.5
2018-07-13 12:00,50.6304416666667,-96.980775,6.1,8.8,240,987.03,19.4,86,23.22,0.0,1013.07,167.4
2018-07-13 12:10,50.6304433333333,-96.980775,4.9,7.2,242,987.11,19.8,84,23.20,0.0,1013.13,167.4
2018-07-13 12:20,50.6304633333333,-96.980835,4.7,6.6,238,987.20,20.2,82,23.19,0.0,1013.21,167.4
2018-07-13 12:30,50.630445,-96.98078,4.8,7.5,238,987.28,20.6,80,23.18,0.0,1013.27,167.4
2018-07-13 12:40,50.6304433333333,-96.9807766666667,4.6,6.5,246,987.30,21.0,78,23.16,0.0,1013.26,167.4
2018-07-13 12:50,50.63046,-96.9808166666667,5.0,8.1,249,987.31,21.4,75,23.15,0.0,1013.26,167.4
2018-07-13 13:00,50.6325216666667,-96.9709366666667,4.1,10.5,267,987.33,22.3,71,23.03,2.4,1013.24,71.8
2018-07-13 13:10,50.6546266666667,-96.93631,7.4,9.4,345,987.35,22.4,68,22.80,11.2,1013.25,71.8
2018-07-13 13:20,50.6767566666667,-96.9022083333333,8.2,9.8,344,987.26,22.5,67,22.47,11.1,1013.14,71.8
2018-07-13 13:30,50.6991433333333,-96.868565,8.4,9.6,345,987.15,22.6,68,22.36,11.1,1013.01,71.8
2018-07-13 13:40,50.721665,-96.8350316666667,7.4,8.8,343,987.09,22.6,69,22.35,11.1,1012.94,71.8
2018-07-13 13:50,50.7440466666667,-96.8013916666667,6.3,7.7,349,987.17,22.6,71,22.36,11.1,1013.01,71.8
2018-07-13 14:00,50.76624,-96.7676566666667,6.9,8.5,353,987.24,22.7,71,22.40,11.1,1013.05,44.8
2018-07-13 14:10,50.7877666666667,-96.736955,7.3,9.4,348,987.31,22.8,71,22.51,10.4,1013.11,44.8
2018-07-13 14:20,50.7906333333333,-96.7322733333333,6.8,7.7,274,987.39,22.6,72,22.65,1.5,1013.17,44.8
2018-07-13 14:30,50.786915,-96.7297016666667,6.9,10.7,246,987.33,23.0,73,22.72,1.5,1013.08,44.8
2018-07-13 14:40,50.7870883333333,-96.72963,6.9,8.5,266,987.27,22.9,74,22.70,0.1,1013.01,44.8
2018-07-13 14:50,50.7877083333333,-96.7306516666667,7.1,8.4,269,987.23,23.0,75,22.69,0.3,1012.92,44.8
2018-07-13 15:00,50.7866583333333,-96.7363266666667,8.8,10.9,265,987.21,23.2,74,22.78,1.3,1012.88,44.6
2018-07-13 15:10,50.78541,-96.7352033333333,7.6,8.5,260,987.33,23.5,73,22.84,0.5,1012.99,44.6
2018-07-13 15:20,50.7945883333333,-96.7369016666667,7.5,13.7,284,987.34,23.4,74,22.87,3.3,1013.00,44.6
2018-07-13 15:30,50.821165,-96.728105,8.6,10.3,328,987.30,23.3,72,22.92,9.8,1012.96,44.6
2018-07-13 15:40,50.8507633333333,-96.7147166666667,9.2,10.4,341,987.21,23.5,73,22.90,11.1,1012.86,44.6
2018-07-13 15:50,50.8808816666667,-96.7036233333333,9.5,10.6,336,987.17,23.6,72,22.95,11.1,1012.82,44.6
2018-07-13 16:00,50.910565,-96.6907883333333,8.7,10.3,337,987.18,23.7,73,22.89,11.1,1012.82,32.4
2018-07-13 16:10,50.9407116666667,-96.6794916666667,7.9,8.9,346,987.16,23.5,77,22.78,11.2,1012.81,32.4
2018-07-13 16:20,50.9706583333333,-96.6677816666667,7.8,8.9,342,987.16,23.6,78,22.81,11.1,1012.79,32.4
2018-07-13 16:30,51.0011283333333,-96.658375,6.4,7.7,358,987.21,23.6,82,22.89,11.2,1012.84,32.4
2018-07-13 16:40,51.0317433333333,-96.6491966666667,2.8,4.4,347,987.19,23.7,82,22.89,11.2,1012.82,32.4
2018-07-13 16:50,51.06242,-96.6409583333333,5.2,9.6,323,987.13,24.2,69,23.01,11.2,1012.72,32.4
2018-07-13 17:00,51.0927883333333,-96.63256,14.4,21.0,327,986.75,26.2,46,23.05,11.1,1012.24,14.6
2018-07-13 17:10,51.1231083333333,-96.6235916666667,16.0,21.4,324,986.70,27.3,40,23.06,11.1,1012.14,14.6
2018-07-13 17:20,51.154065,-96.6146133333333,16.8,22.2,326,986.60,27.4,40,23.20,11.3,1012.04,14.6
2018-07-13 17:30,51.1856583333333,-96.6000383333333,16.2,22.2,333,986.61,27.7,39,23.04,11.8,1012.03,14.6
2018-07-13 17:40,51.215845,-96.6044066666667,16.6,20.8,328,986.39,27.5,44,22.99,10.9,1011.81,14.6
2018-07-13 17:50,51.2454283333333,-96.6199316666667,20.5,25.5,332,986.15,27.2,45,23.15,11.2,1011.57,14.6
2018-07-13 18:00,51.2754966666667,-96.6263116666667,19.0,24.6,332,986.26,27.1,45,23.25,10.9,1011.69,8.0
2018-07-13 18:10,51.3054866666667,-96.61123,16.8,22.2,354,986.43,27.2,45,23.20,11.3,1011.85,8.0
2018-07-13 18:20,51.3353783333333,-96.59647,14.6,18.8,16,986.64,26.5,53,23.25,11.3,1012.10,8.0
2018-07-13 18:30,51.3656216666667,-96.6014266666667,13.0,15.9,359,986.75,25.8,56,23.30,10.9,1012.24,8.0
2018-07-13 18:40,51.3954116666667,-96.6163133333333,11.4,13.0,343,986.81,26.0,55,22.85,11.2,1012.28,8.0
2018-07-13 18:50,51.4253683333333,-96.6305866666667,9.7,10.7,345,986.87,26.1,56,22.56,11.3,1012.25,8.0
2018-07-13 19:00,51.4553516666667,-96.6443383333333,11.3,12.9,358,986.88,26.4,56,22.47,11.2,1012.20,3.0
2018-07-13 19:10,51.4854333333333,-96.6580833333333,9.3,11.5,9,987.01,26.2,55,22.46,11.3,1012.34,3.0
2018-07-13 19:20,51.515475,-96.672725,8.9,11.6,6,987.10,26.1,56,22.60,11.3,1012.42,3.0
2018-07-13 19:30,51.545385,-96.68767,10.6,13.7,3,987.09,25.9,55,22.74,11.3,1012.42,3.0
2018-07-13 19:40,51.5753116666667,-96.70156,15.2,19.2,2,986.91,25.7,59,22.83,11.2,1012.26,3.0
2018-07-13 19:50,51.6047716666667,-96.7167883333333,17.5,20.0,356,986.76,25.6,60,22.81,11.1,1012.12,3.0
2018-07-13 20:00,51.6125116666667,-96.7086833333333,10.0,17.4,17,986.86,25.5,60,23.00,3.3,1012.22,354.8
2018-07-13 20:10,51.6063116666667,-96.6773016666667,8.3,12.4,61,986.80,25.6,57,23.04,7.4,1012.19,354.8
2018-07-13 20:20,51.6078283333333,-96.681335,5.4,10.9,353,986.88,26.4,55,23.69,1.1,1012.26,354.8
2018-07-13 20:30,51.6318983333333,-96.7122366666667,14.9,16.3,334,986.59,26.7,47,23.17,11.1,1011.94,354.8
2018-07-13 20:40,51.6572633333333,-96.7414016666667,13.6,15.6,334,986.62,26.8,45,23.33,11.2,1011.96,354.8
2018-07-13 20:50,51.6830066666667,-96.770095,15.2,16.7,332,986.55,26.7,42,22.87,11.3,1011.88,354.8
2018-07-13 21:00,51.7029833333333,-96.79653,10.9,15.9,323,986.56,26.0,48,23.34,9.3,1011.93,346.1
2018-07-13 21:10,51.7046016666667,-96.799495,9.9,13.4,257,986.63,26.3,42,23.69,0.9,1012.00,346.1
2018-07-13 21:20,51.70311,-96.7951716666667,6.2,8.3,242,986.62,27.1,45,23.92,1.1,1011.96,346.1
2018-07-13 21:30,51.7032716666667,-96.7953833333333,3.7,6.5,228,986.65,26.7,41,23.88,0.1,1012.01,346.1
2018-07-13 21:40,51.703225,-96.79556,1.3,3.0,189,986.60,26.8,42,23.92,0.0,1011.97,346.1
2018-07-13 21:50,51.7032266666667,-96.7955983333333,1.2,2.3,199,986.54,26.7,39,24.06,0.0,1011.91,346.1
2018-07-13 22:00,51.7032616666667,-96.7955783333333,2.6,4.8,164,986.46,27.1,42,24.13,0.0,1011.81,339.3
2018-07-13 22:10,51.704235,-96.7937,6.9,11.2,129,986.27,26.4,51,24.11,0.5,1011.61,339.3
2018-07-13 22:20,51.7054566666667,-96.7991,7.6,10.4,147,986.29,25.8,55,23.71,1.3,1011.64,339.3
2018-07-13 22:30,51.7038966666667,-96.7986633333333,8.6,11.5,146,986.17,25.7,58,23.38,0.6,1011.51,339.3
2018-07-13 22:40,51.7048483333333,-96.8000416666667,9.0,10.6,147,986.10,26.0,57,23.88,0.5,1011.44,339.3
2018-07-13 22:50,51.7060766666667,-96.796145,8.8,11.1,139,986.07,25.9,57,24.13,1.0,1011.44,339.3
2018-07-13 23:00,51.70784,-96.7970683333333,7.1,9.0,144,986.15,25.8,62,24.51,0.7,1011.52,330.1
2018-07-13 23:10,51.7079133333333,-96.7969683333333,7.4,8.2,134,986.07,25.4,58,24.56,0.0,1011.42,330.1
2018-07-13 23:20,51.7079266666667,-96.7970266666667,6.3,8.2,126,986.12,25.4,61,24.53,0.0,1011.48,330.1
2018-07-13 23:30,51.70794,-96.7970383333333,6.0,7.1,123,986.17,25.8,50,24.32,0.0,1011.51,330.1
2018-07-13 23:40,51.7079366666667,-96.7969733333333,5.4,7.0,132,986.13,25.8,54,24.33,0.0,1011.48,330.1
